Weather History for Nebraska City, NE

Change the Weather History Date:

Friday, April 18, 2014

  Actual Average (KSDA) Record (KSDA)
Temperature  
Mean Temperature 50 °F -  
Max Temperature 69 °F 64 °F 95 °F (2002)
Min Temperature 32 °F 41 °F 19 °F (1953)
Degree Days  
Heating Degree Days 15    
Moisture  
Dew Point 35 °F    
Average Humidity 55    
Maximum Humidity 87    
Minimum Humidity 33    
Precipitation  
Precipitation 0.00 in - - ()
Sea Level Pressure  
Sea Level Pressure 30.21 in    
Wind  
Wind Speed 8 mph (South)    
Max Wind Speed 21 mph    
Max Gust Speed 28 mph    
Visibility 9 miles    
Events      
Averages and records for this station are not official NWS values.
T = Trace of Precipitation, MM = Missing Value Source: NWS Daily Summary

Daily Weather History Graph

Daily Weather History Graph

Search for Another Location

Airport:

Trip Planner

Search our weather history database for the weather conditions in past years. The results will help you decide how hot, cold, wet, or windy it might be!

Date:

Astronomy

Apr. 18, 2014 Rise Set
Actual Time 6:40 AM CDT 8:05 PM CDT
Civil Twilight 6:11 AM CDT 8:34 PM CDT
Nautical Twilight 5:37 AM CDT 9:08 PM CDT
Astronomical Twilight 5:01 AM CDT 9:45 PM CDT
Moon 11:52 PM CDT (4/18) 9:02 AM CDT (4/18)
Length of Visible Light 14h 22m
Length of Day
13h 25m
Waning Gibbous, 87% of the Moon is Illuminated
Apr 18
Waning Gibbous
Apr 22
Last Quarter
Apr 29
New
May 6
First Quarter
May 14
Full

Hourly Weather History & Observations

Time (CDT) Temp. Windchill Dew Point Humidity Pressure Visibility Wind Dir Wind Speed Gust Speed Precip Events Conditions
12:15 AM 42.4 °F 40.7 °F 27.1 °F 55% 30.27 in 10.0 mi South 3.5 mph - N/A   Clear
12:35 AM 42.6 °F 39.9 °F 27.3 °F 55% 30.26 in 10.0 mi South 4.6 mph - N/A   Clear
12:55 AM 42.6 °F 39.9 °F 27.5 °F 55% 30.27 in 10.0 mi South 4.6 mph - N/A   Clear
1:15 AM 43.5 °F 40.9 °F 27.5 °F 53% 30.27 in 10.0 mi South 4.6 mph - N/A   Clear
1:35 AM 40.3 °F 37.1 °F 27.3 °F 60% 30.26 in 10.0 mi SSW 4.6 mph - N/A   Clear
1:55 AM 41.2 °F 39.2 °F 27.5 °F 58% 30.26 in 10.0 mi SSW 3.5 mph - N/A   Clear
2:15 AM 38.1 °F 33.7 °F 27.3 °F 65% 30.26 in 10.0 mi SSW 5.8 mph - N/A   Clear
2:35 AM 36.1 °F 31.4 °F 27.0 °F 69% 30.26 in 10.0 mi SSW 5.8 mph - N/A   Clear
2:55 AM 36.0 °F 31.1 °F 27.3 °F 71% 30.26 in 10.0 mi South 5.8 mph - N/A   Clear
3:15 AM 34.9 °F 29.9 °F 27.1 °F 73% 30.25 in 10.0 mi SSW 5.8 mph - N/A   Clear
3:35 AM 35.6 °F 30.7 °F 27.7 °F 73% 30.26 in 10.0 mi SW 5.8 mph - N/A   Clear
3:55 AM 34.9 °F 29.9 °F 28.0 °F 76% 30.26 in 7.0 mi SW 5.8 mph - N/A   Clear
4:15 AM 34.5 °F 28.6 °F 28.6 °F 79% 30.26 in 7.0 mi SW 6.9 mph - N/A   Clear
4:35 AM 34.5 °F 29.4 °F 28.8 °F 79% 30.26 in 7.0 mi SSW 5.8 mph - N/A   Clear
4:55 AM 33.1 °F 27.7 °F 28.6 °F 84% 30.26 in 7.0 mi SW 5.8 mph - N/A   Clear
5:35 AM 35.2 °F 29.5 °F 30.7 °F 84% 30.26 in 5.0 mi WSW 6.9 mph - N/A   Clear
5:55 AM 35.6 °F 31.7 °F 30.6 °F 82% 30.26 in 5.0 mi WSW 4.6 mph - N/A   Haze
6:15 AM 34.5 °F - 30.7 °F 86% 30.26 in 5.0 mi Calm Calm - N/A   Clear
6:35 AM 36.1 °F - 30.7 °F 81% 30.28 in 5.0 mi Calm Calm - N/A   Haze
6:55 AM 34.0 °F 29.8 °F 29.3 °F 83% 30.28 in 4.0 mi South 4.6 mph - N/A   Haze
7:15 AM 32.0 °F 26.4 °F 28.6 °F 87% 30.29 in 5.0 mi South 5.8 mph - N/A   Clear
7:35 AM 33.6 °F 28.4 °F 30.2 °F 87% 30.29 in 5.0 mi South 5.8 mph - N/A   Clear
7:55 AM 35.6 °F - 32.0 °F 87% 30.28 in 5.0 mi Calm Calm - N/A   Clear
8:15 AM 36.9 °F 32.2 °F 32.5 °F 84% 30.29 in 4.0 mi SSE 5.8 mph - N/A   Clear
8:35 AM 39.4 °F 36.1 °F 34.0 °F 81% 30.29 in 4.0 mi South 4.6 mph - N/A   Haze
8:55 AM 41.9 °F 38.2 °F 35.2 °F 77% 30.30 in 4.0 mi SSE 5.8 mph - N/A   Haze
9:15 AM 44.6 °F 41.4 °F 35.8 °F 71% 30.29 in 4.0 mi South 5.8 mph - N/A   Haze
9:35 AM 48.2 °F - 36.5 °F 64% 30.29 in 5.0 mi South 6.9 mph - N/A   Haze
9:55 AM 50.4 °F - 36.3 °F 59% 30.29 in 7.0 mi SSE 10.4 mph - N/A   Clear
10:15 AM 52.0 °F - 35.8 °F 54% 30.28 in 7.0 mi SSE 11.5 mph - N/A   Clear
10:35 AM 53.6 °F - 34.5 °F 48% 30.28 in 10.0 mi SSE 12.7 mph - N/A   Clear
11:15 AM 55.8 °F - 35.1 °F 46% 30.28 in 10.0 mi South 15.0 mph 20.7 mph N/A   Clear
11:35 AM 56.5 °F - 34.9 °F 44% 30.27 in 10.0 mi SSE 13.8 mph 19.6 mph N/A   Clear
11:55 AM 57.4 °F - 34.3 °F 42% 30.27 in 10.0 mi SSE 11.5 mph 16.1 mph N/A   Clear
12:15 PM 58.3 °F - 34.3 °F 41% 30.26 in 10.0 mi South 11.5 mph 18.4 mph N/A   Clear
12:35 PM 59.2 °F - 34.9 °F 40% 30.25 in 10.0 mi South 11.5 mph 20.7 mph N/A   Clear
12:55 PM 61.0 °F - 34.9 °F 38% 30.24 in 10.0 mi South 12.7 mph 20.7 mph N/A   Clear
1:15 PM 62.2 °F - 35.1 °F 36% 30.24 in 10.0 mi SSE 11.5 mph 19.6 mph N/A   Clear
1:35 PM 62.8 °F - 35.4 °F 36% 30.23 in 10.0 mi South 11.5 mph 20.7 mph N/A   Clear
1:55 PM 64.2 °F - 36.3 °F 36% 30.22 in 10.0 mi SSE 12.7 mph 18.4 mph N/A   Clear
2:15 PM 65.1 °F - 37.0 °F 35% 30.21 in 10.0 mi SSE 11.5 mph 20.7 mph N/A   Clear
2:35 PM 65.5 °F - 37.2 °F 35% 30.19 in 10.0 mi South 12.7 mph 27.6 mph N/A   Clear
2:55 PM 66.6 °F - 37.9 °F 35% 30.19 in 10.0 mi South 15.0 mph 20.7 mph N/A   Clear
3:15 PM 67.1 °F - 38.1 °F 34% 30.18 in 10.0 mi South 12.7 mph 21.9 mph N/A   Clear
3:35 PM 67.1 °F - 37.9 °F 34% 30.17 in 10.0 mi SSE 16.1 mph 21.9 mph N/A   Clear
3:55 PM 68.0 °F - 38.5 °F 34% 30.16 in 10.0 mi South 16.1 mph 24.2 mph N/A   Clear
4:15 PM 68.0 °F - 38.3 °F 34% 30.15 in 10.0 mi South 15.0 mph 25.3 mph N/A   Clear
4:35 PM 68.4 °F - 38.7 °F 34% 30.14 in 10.0 mi South 17.3 mph 26.5 mph N/A   Clear
4:55 PM 68.4 °F - 38.5 °F 33% 30.14 in 10.0 mi South 19.6 mph - N/A   Clear
5:15 PM 68.4 °F - 38.8 °F 34% 30.13 in 10.0 mi South 15.0 mph 25.3 mph N/A   Clear
5:35 PM 68.5 °F - 38.3 °F 33% 30.12 in 10.0 mi South 19.6 mph 25.3 mph N/A   Clear
5:55 PM 68.0 °F - 38.7 °F 34% 30.12 in 10.0 mi South 19.6 mph 25.3 mph N/A   Clear
6:15 PM 67.1 °F - 38.1 °F 34% 30.11 in 10.0 mi South 17.3 mph 24.2 mph N/A   Clear
6:35 PM 67.1 °F - 38.3 °F 35% 30.11 in 10.0 mi South 20.7 mph - N/A   Clear
6:55 PM 66.0 °F - 38.5 °F 36% 30.11 in 10.0 mi South 15.0 mph 23.0 mph N/A   Clear
7:15 PM 64.8 °F - 38.5 °F 38% 30.10 in 10.0 mi South 15.0 mph - N/A   Clear
7:35 PM 63.0 °F - 39.2 °F 42% 30.10 in 10.0 mi South 13.8 mph - N/A   Clear
7:55 PM 61.7 °F - 39.2 °F 43% 30.11 in 10.0 mi South 12.7 mph - N/A   Clear
8:15 PM 60.6 °F - 39.4 °F 45% 30.11 in 10.0 mi South 11.5 mph - N/A   Clear
8:35 PM 59.7 °F - 39.4 °F 47% 30.11 in 10.0 mi South 11.5 mph - N/A   Clear
8:55 PM 58.3 °F - 39.6 °F 50% 30.11 in 10.0 mi SSE 10.4 mph - N/A   Clear
9:15 PM 57.9 °F - 39.7 °F 51% 30.11 in 10.0 mi SSE 9.2 mph - N/A   Clear
9:35 PM 57.4 °F - 40.1 °F 53% 30.11 in 10.0 mi SSE 9.2 mph - N/A   Clear
9:55 PM 57.2 °F - 40.1 °F 53% 30.12 in 10.0 mi South 10.4 mph - N/A   Clear
10:15 PM 57.6 °F - 40.1 °F 52% 30.12 in 10.0 mi South 12.7 mph - N/A   Clear
10:35 PM 57.9 °F - 39.7 °F 51% 30.12 in 10.0 mi South 12.7 mph - N/A   Clear
10:55 PM 57.7 °F - 39.7 °F 51% 30.12 in 10.0 mi South 13.8 mph - N/A   Clear
11:15 PM 57.2 °F - 39.6 °F 52% 30.12 in 10.0 mi South 15.0 mph - N/A   Clear
11:35 PM 56.3 °F - 39.4 °F 53% 30.12 in 10.0 mi South 13.8 mph - N/A   Clear
11:55 PM 55.6 °F - 39.6 °F 55% 30.12 in 10.0 mi South 13.8 mph - N/A   Clear